EHI
4 23 58 84 92 94 92 87 82 83 87 89 89 88 86 86 89 86 79 69 52 30 10 2 0 0 0 1 2 2 1 2 2 1 1 1 1 3 9 14 10 6 7
12 26 59 85 92 90 82 72 64 63 66 71 76 78 77 78 80 75 64 52 37 18 5 1 0 0 0 0 1 1 1 3 3 2 1 1 1 2 6 11 10 8 9
27 29 51 79 88 81 65 46 34 31 33 38 47 54 55 57 57 49 37 26 16 6 1 0 0 0 0 0 0 0 1 2 2 1 0 0 0 0 3 6 7 8 9
32 26 38 67 78 68 47 24 11 9 9 11 17 23 27 28 27 20 13 8 4 1 0 0 0 0 0 0 0 0 0 0 0 0 0 0 0 0 0 1 2 4 5
24 21 35 57 64 53 33 12 3 1 1 1 2 5 7 7 6 3 1 1 1 0 0 0 0 0 0 0 0 0 0 0 0 0 0 0 0 0 0 0 0 1 1
15 18 33 49 49 38 23 9 3 1 0 0 0 0 0 0 0 0 0 0 0 0 0 0 0 0 0 0 0 0 0 0 0 0 0 0 0 0 1 1 1 0 0
16 16 25 36 36 28 19 10 5 3 1 1 1 1 0 0 0 0 0 0 0 0 0 0 0 0 0 0 0 0 1 1 0 0 0 0 0 1 2 2 2 1 0
18 13 14 21 24 22 18 11 7 4 3 4 5 4 4 4 4 3 1 0 0 0 0 0 0 0 0 0 0 0 1 1 0 0 0 0 1 2 2 3 2 1 0
14 11 7 8 11 14 13 9 6 5 5 6 7 8 10 11 9 5 2 1 0 0 0 0 0 0 0 0 0 0 0 0 0 0 0 0 1 2 2 2 2 1 0
6 7 5 3 3 6 6 5 4 5 6 7 8 10 13 11 7 4 2 1 0 0 0 0 0 0 0 0 0 0 0 0 0 0 0 0 1 2 2 1 1 0 0
2 3 5 4 3 4 4 3 3 3 4 4 5 8 9 5 2 1 1 0 0 0 0 0 0 0 0 1 0 0 0 0 0 0 0 1 2 2 1 0 0 0 0
4 3 4 5 6 7 5 3 1 1 1 1 2 3 3 1 0 0 0 0 0 0 0 0 0 0 0 0 0 0 0 0 0 0 1 2 2 1 0 0 0 0 0
12 7 4 7 9 8 5 3 1 0 0 0 0 0 0 0 0 0 0 0 0 0 0 0 0 0 0 0 0 0 0 0 0 0 1 2 2 1 1 1 1 0 0
25 15 9 10 11 9 6 3 1 0 0 0 0 0 0 0 0 0 1 1 1 0 0 0 0 0 0 0 0 0 0 0 0 0 1 2 4 4 3 2 1 0 0
42 28 17 16 14 11 7 4 1 0 0 0 0 0 0 0 0 0 1 1 1 0 0 0 0 0 0 0 0 0 0 0 0 0 1 4 7 7 7 5 3 2 1
58 45 32 26 21 16 12 7 3 2 1 0 0 0 0 0 1 1 0 0 0 0 0 0 0 0 0 0 0 0 0 0 0 0 1 3 6 8 10 9 6 4 2
67 61 53 45 40 34 26 17 12 10 8 5 4 4 3 3 4 3 1 1 0 0 0 0 0 0 0 0 0 0 0 0 0 0 0 1 2 5 7 8 6 3 2
65 69 70 67 64 62 53 41 31 26 23 21 18 15 12 10 9 7 4 2 1 0 0 0 0 0 0 0 0 0 0 0 0 0 0 0 0 1 2 3 3 1 0
61 70 78 80 82 83 79 70 58 49 44 41 38 33 27 22 16 10 6 3 1 1 0 0 0 0 0 0 0 0 0 0 0 0 0 0 0 0 0 1 1 0 0
58 67 78 85 89 92 93 88 78 68 58 53 50 45 37 29 21 13 7 4 2 1 0 0 0 0 0 0 0 0 0 0 0 0 0 0 0 0 0 0 0 0 0
51 59 73 85 92 96 96 92 82 70 58 48 43 37 30 24 18 12 8 4 2 1 0 0 0 0 0 0 0 0 0 0 0 0 0 0 0 0 0 0 0 0 0
45 53 67 81 91 94 92 84 73 60 46 34 26 18 14 13 11 9 5 2 0 0 0 0 0 0 0 0 0 0 0 0 0 0 0 0 0 0 0 0 0 0 0
45 52 63 76 86 89 84 75 63 51 39 26 14 7 5 6 5 4 2 0 0 0 0 0 0 0 0 0 0 0 0 0 0 0 0 0 0 0 0 0 0 0 0
47 53 63 73 81 82 76 68 59 49 36 21 9 3 3 3 2 1 0 0 0 0 0 0 0 0 0 0 0 0 0 0 0 0 0 0 0 0 0 0 0 0 0
51 55 64 73 75 72 67 61 52 41 27 13 4 1 1 1 0 0 0 0 0 0 0 0 0 0 0 0 0 0 0 0 0 0 0 0 0 0 0 0 0 0 0
56 59 65 71 70 64 59 53 44 31 19 8 2 0 0 0 0 0 0 0 0 0 0 0 0 0 0 0 0 0 0 0 0 0 0 0 0 0 0 0 0 0 0
Wind_Speed
8 9 16 17 17 17 18 18 17 17 16 16 17 17 18 18 17 17 16 15 15 14 14 14 13 13 13 14 14 14 13 12 13 14 14 14 14 15 16 16 14 10 15
13 11 17 18 18 18 18 17 17 16 16 16 16 16 16 16 16 16 15 15 14 14 13 12 12 12 12 12 12 12 12 11 11 12 13 13 15 15 15 15 14 9 14
15 11 15 18 18 18 18 17 16 16 15 15 15 15 15 15 15 15 15 14 13 13 12 11 11 10 10 10 11 10 10 10 10 10 10 6 9 15 16 15 15 14 13
16 11 13 17 18 18 18 17 16 16 16 15 15 15 15 15 14 14 14 13 12 11 11 10 9 8 8 9 9 9 9 9 8 7 4 3 6 13 14 14 14 13 13
14 10 13 18 17 17 18 17 16 16 16 15 15 15 15 14 14 13 13 12 11 10 9 9 8 7 6 7 8 8 8 7 7 6 4 5 5 11 13 13 13 12 12
13 11 13 17 17 17 17 17 17 17 16 16 15 15 14 14 13 13 13 12 11 9 8 7 6 5 5 5 6 7 7 8 7 5 5 5 5 10 12 12 12 11 10
12 9 11 16 17 17 17 17 17 17 16 15 15 15 14 13 13 12 12 12 10 9 8 6 5 4 3 4 5 6 7 9 6 5 5 4 5 10 11 10 10 10 9
15 10 10 16 18 17 17 17 16 16 16 15 15 15 14 13 12 12 12 11 10 9 8 6 5 4 3 2 4 5 6 9 8 6 5 4 7 10 11 10 9 9 8
15 12 9 10 13 16 16 16 16 16 15 15 15 15 15 14 13 13 12 11 10 9 8 7 6 5 3 1 3 3 5 9 7 5 7 4 7 10 11 10 10 9 8
13 12 10 8 8 8 10 16 17 16 16 16 16 16 16 15 14 14 11 11 11 11 10 8 7 5 3 1 1 2 5 9 6 5 4 5 10 11 11 10 10 9 8
12 10 10 10 8 8 8 12 14 16 16 15 14 16 13 7 7 8 11 12 12 11 10 9 7 5 3 2 1 3 6 4 6 4 3 9 12 12 11 10 10 9 8
14 12 10 11 11 9 9 7 6 7 8 8 6 8 6 5 5 8 10 13 13 11 10 9 8 5 3 1 1 4 3 5 5 4 4 11 11 12 11 10 9 9 8
17 15 13 12 12 10 7 7 4 4 5 6 7 7 6 5 4 5 4 6 6 7 4 4 4 2 2 1 1 3 5 5 3 3 4 10 10 11 11 10 9 8 7
17 17 15 14 12 11 9 8 7 5 5 5 7 8 6 4 4 4 4 4 3 2 2 2 2 3 1 0 3 6 7 5 4 3 4 10 9 10 10 9 8 7 6
17 17 17 16 15 12 10 8 8 7 7 7 6 7 7 5 5 5 4 4 4 3 3 2 2 1 2 3 5 7 7 6 6 4 3 9 9 8 9 9 7 6 6
17 17 17 17 17 13 11 9 8 8 7 7 6 8 8 5 5 5 4 4 3 3 2 2 1 1 3 4 7 7 7 6 5 4 3 5 7 8 8 8 8 7 6
17 16 16 17 16 15 13 12 9 8 8 7 7 7 8 6 6 5 4 4 3 3 3 2 2 3 3 5 7 6 5 5 5 5 4 3 4 7 8 8 8 7 7
13 14 16 15 15 15 12 10 7 7 7 6 6 6 7 6 6 5 4 3 3 3 3 3 3 4 3 4 4 4 4 4 4 4 4 4 3 3 5 8 7 7 6
10 12 14 12 14 13 10 7 6 5 6 5 5 5 5 6 6 5 4 3 4 4 3 4 3 3 3 3 3 3 3 3 3 4 4 4 3 3 2 5 7 6 6
8 9 10 10 11 11 9 7 5 5 4 3 4 4 5 5 6 5 4 5 4 4 4 4 5 4 3 2 3 3 2 2 2 2 3 2 2 4 3 3 3 4 7
5 7 9 11 12 10 8 7 6 5 4 4 3 4 5 6 6 6 5 5 4 4 4 5 4 5 3 2 3 2 3 3 2 1 1 1 1 2 3 3 3 3 3
10 9 8 9 11 11 9 6 5 6 5 4 4 6 6 6 6 6 6 5 5 5 5 4 4 3 2 2 2 2 2 3 3 2 1 1 0 0 1 3 3 4 4
9 10 10 9 10 10 10 8 8 6 5 4 5 5 5 6 6 6 7 6 5 5 4 4 4 4 3 2 2 3 3 2 2 3 3 2 2 2 2 2 3 3 3
7 8 9 9 9 9 11 11 12 8 6 5 5 5 6 6 7 7 7 6 5 4 5 4 3 3 4 2 2 2 2 3 2 2 3 3 3 3 4 4 5 4 3
5 7 8 8 8 8 9 10 10 7 7 8 8 9 7 6 7 7 7 6 6 5 5 6 5 5 3 3 2 2 3 3 2 2 1 3 3 3 3 3 4 4 5
5 6 8 9 7 7 9 8 9 11 12 12 10 9 7 5 6 7 7 7 6 6 6 6 6 7 5 5 4 4 3 3 2 2 1 1 2 3 2 3 4 4 4
Wind_Direction
150 156 150 141 133 127 122 117 113 110 106 103 102 103 103 103 103 102 101 99 95 92 88 83 80 78 77 78 78 79 81 83 90 94 94 91 90 98 102 96 93 88 90
147 152 148 142 136 132 128 124 120 116 112 108 106 105 104 104 103 102 101 99 97 94 90 85 81 77 76 76 76 75 74 73 78 83 84 84 87 94 102 98 95 95 94
140 146 146 142 139 136 133 130 126 123 119 114 111 109 107 106 105 104 103 102 100 98 94 89 84 78 74 74 74 73 69 68 70 76 77 74 88 95 99 99 97 95 94
139 142 145 143 141 140 137 135 132 129 125 120 117 114 112 111 110 110 109 108 105 103 99 94 88 81 74 72 72 71 69 68 71 80 80 88 96 102 102 101 99 97 96
137 139 146 144 143 142 141 140 137 135 132 128 125 122 120 119 118 117 117 115 113 110 106 102 97 90 81 75 73 71 70 78 86 90 95 101 102 109 107 105 102 99 97
137 139 144 143 144 145 145 145 143 141 138 136 133 130 127 126 126 126 126 125 124 123 119 116 112 105 95 83 77 74 76 88 94 98 103 112 114 112 110 110 108 105 100
136 138 143 143 145 147 148 148 147 146 143 141 139 136 135 134 134 135 136 137 138 138 136 134 134 131 118 95 83 80 88 106 108 108 115 120 124 122 119 118 117 114 110
142 141 144 146 148 148 150 150 150 149 147 145 144 143 143 143 143 145 146 148 149 150 152 157 164 170 166 119 90 89 103 120 121 121 120 123 130 129 130 131 129 127 122
144 144 145 149 150 150 150 150 150 150 149 149 149 150 150 151 152 155 156 158 160 164 170 180 190 199 199 155 102 105 126 136 133 138 139 138 143 141 141 139 136 134 132
148 150 150 148 147 147 150 153 153 153 154 155 156 157 158 159 162 164 165 169 173 178 185 194 205 216 226 220 132 129 144 144 151 147 141 155 152 151 149 146 142 140 137
154 157 155 154 152 150 152 159 158 158 160 161 164 165 162 163 166 169 177 180 184 190 197 205 215 227 245 258 211 150 141 148 150 143 150 159 157 156 153 149 146 144 143
164 169 165 163 161 159 163 154 158 163 164 163 166 167 164 167 177 180 190 190 193 199 207 217 228 241 253 234 192 148 145 144 144 151 166 163 161 158 156 154 152 151 150
168 171 173 171 168 169 162 159 166 165 166 169 173 172 172 174 186 190 183 197 199 204 214 233 244 248 240 226 187 147 151 148 151 159 167 166 164 161 159 159 158 156 154
170 175 175 175 174 176 167 171 174 174 177 182 185 182 180 183 189 185 181 186 187 192 204 232 243 257 267 187 147 138 142 148 146 140 163 164 163 163 162 160 158 152 147
175 177 178 178 178 179 171 178 180 183 185 189 188 191 188 187 184 177 180 181 185 190 200 222 234 237 92 92 107 118 122 125 132 128 147 156 155 158 159 155 150 144 136
179 180 180 181 181 179 178 182 183 186 185 189 194 195 191 185 175 171 175 179 184 186 186 191 196 129 101 97 96 101 110 114 123 124 117 133 135 135 137 138 136 133 129
181 181 182 183 181 181 181 185 182 184 182 187 191 191 187 180 172 166 164 169 175 162 142 125 104 96 99 96 95 98 105 113 129 132 126 118 124 132 134 134 132 131 127
178 179 182 185 182 182 180 180 176 179 179 184 180 180 181 173 164 154 149 155 144 122 116 115 107 96 91 102 106 106 107 115 120 134 138 140 139 141 144 144 141 141 142
179 175 181 181 177 176 168 161 155 158 165 167 163 164 167 159 151 138 136 133 125 111 107 112 92 99 101 97 102 96 96 105 117 127 138 151 157 151 152 161 162 167 172
178 173 176 172 168 161 151 136 125 117 123 129 139 148 145 134 127 121 118 118 116 107 96 93 93 78 85 93 84 68 60 78 91 104 119 121 144 164 176 180 180 206 209
162 177 178 172 167 162 157 149 139 130 117 103 96 103 109 111 113 112 110 104 102 104 110 112 104 90 66 54 76 37 7 24 48 65 85 96 113 142 172 194 205 218 233
173 182 184 179 172 170 161 147 129 121 106 95 89 81 88 99 104 110 112 105 98 101 97 95 101 100 64 36 102 98 18 358 356 15 31 85 84 135 205 212 219 224 231
178 175 180 182 174 164 145 128 116 102 97 98 96 88 80 91 94 98 101 102 98 100 104 96 99 111 115 47 54 127 143 204 320 341 2 16 358 348 330 320 301 280 255
178 173 173 177 165 160 152 150 150 154 146 134 120 106 90 84 88 92 94 96 97 99 102 95 90 103 116 112 58 52 99 133 125 348 341 360 10 19 358 346 340 333 321
149 157 158 150 153 156 151 151 147 137 123 121 116 110 98 85 83 90 94 96 95 94 92 87 83 77 81 99 100 84 69 62 75 127 322 339 353 358 0 359 358 358 359
80 113 123 121 124 134 131 130 136 135 133 132 126 120 109 97 88 87 91 90 89 89 88 88 87 83 80 79 72 67 81 80 61 91 127 314 320 310 335 15 30 21 22